Location: �bnet
(46.9957°N, 8.4908°E)
Time: 15:32:20
(UTC+00:00)

Cosmos 1437 Rocket - Pass Details

Date: 11 May 2021
Orbit: 501 x 565 km, 81.2° (Epoch: 17 June)

Event Time Altitude Azimuth Distance (km) Brightness Sun altitude
Rises 19:57:54 0° 211° (SSW) 2,637 6.2 -10.3°
Reaches altitude 10° 20:00:08 10° 220° (SW) 1,765 5.4 -10.6°
Maximum altitude 20:03:44 35° 287° (WNW) 873 4.5 -11.1°
Drops below altitude 10° 20:07:25 10° 355° (N) 1,815 6.2 -11.6°
Sets 20:09:46 0° 4° (N) 2,724 7.0 -11.8°
